Date String (YYYY-MM-DD hh:mm:ss) UTC,Instrument flags,Ambient pressure (hPa),Sample flow (lpm),Bypass flow (lpm),Sample temperature (°C),Ambient temperature (°C),ASC tube jacket temperature (°C),LED temperature (°C),Box temperature (°C),Sample RH (%),Span deviation,Mass concentration (μg/m³),Mass concentration (μg/m³),Mass concentration (μg/m³)
DateTimeUTC,F1_M11,P_M11,Q1_M11,Q2_M11,T1_M11,T2_M11,T3_M11,T4_M11,T5_M11,U1_M11,ZSPAN_M11,X0_M11,X2_M11,X1_M11
2022-06-03 21:00:00,,0821.9,4.99,0.00,29.3,27.5,00.0,38.2,31.1,27.3,-001.3,0018.43,0008.65,0007.73
2022-06-03 21:01:00,,0822.0,4.99,0.00,29.3,27.6,00.0,38.2,31.1,26.3,-001.2,0018.62,0008.54,0007.57
2022-06-03 21:02:00,,0822.1,5.01,0.00,29.3,27.8,00.0,38.2,31.2,26.7,-001.1,0018.63,0008.36,0007.40
2022-06-03 21:03:00,,0822.1,5.02,0.00,29.3,27.9,00.0,38.2,31.2,25.2,-001.3,0018.65,0008.17,0007.22
2022-06-03 21:04:00,,0822.1,5.02,0.00,29.3,28.0,00.0,38.2,31.3,26.4,-001.3,0017.92,0007.99,0007.02
2022-06-03 21:05:00,,0822.2,4.99,0.00,29.4,28.2,00.0,38.2,31.3,26.8,-001.2,0017.69,0007.78,0006.85
2022-06-03 21:06:00,,0822.3,5.00,0.00,29.4,28.3,00.0,38.2,31.3,25.8,-001.3,0017.60,0007.61,0006.67
2022-06-03 21:07:00,,0822.3,5.01,0.00,29.4,28.4,00.0,38.2,31.4,25.1,-001.3,0016.61,0007.40,0006.47
2022-06-03 21:08:00,,0822.3,4.99,0.00,29.4,28.5,00.0,38.2,31.4,24.2,-001.2,0016.22,0007.21,0006.30
2022-06-03 21:09:00,,0822.3,5.00,0.00,29.5,28.5,00.0,38.3,31.4,25.0,-001.2,0015.70,0007.09,0006.16
2022-06-03 21:10:00,,0822.3,5.00,0.00,29.5,28.6,00.0,38.3,31.5,25.5,-001.0,0015.39,0006.92,0005.99
2022-06-03 21:11:00,,0822.3,5.00,0.00,29.5,28.7,00.0,38.3,31.5,24.8,-000.9,0015.13,0006.67,0005.78
2022-06-03 21:12:00,,0822.3,5.00,0.00,29.5,28.6,00.0,38.3,31.5,25.2,-001.3,0014.46,0006.42,0005.57
2022-06-03 21:13:00,,0822.3,4.98,0.00,29.5,27.9,00.0,38.2,31.3,25.4,-001.4,0013.75,0006.20,0005.37
2022-06-03 21:14:00,,0822.3,5.01,0.00,29.5,27.5,00.0,38.2,31.2,24.4,-001.0,0013.43,0006.04,0005.20
2022-06-03 21:15:00,,0822.3,5.00,0.00,29.4,27.5,00.0,38.2,31.2,24.1,-000.7,0013.45,0005.89,0005.07
2022-06-03 21:16:00,,0822.3,5.00,0.00,29.4,27.6,00.0,38.2,31.2,25.0,-000.2,0013.07,0005.78,0004.95
2022-06-03 21:17:00,,0822.3,5.00,0.00,29.4,27.7,00.0,38.2,31.2,26.6,-000.0,0012.94,0005.74,0004.91
2022-06-03 21:18:00,,0822.3,5.00,0.00,29.4,27.8,00.0,38.2,31.2,26.9,0000.0,0013.48,0005.77,0004.91
2022-06-03 21:19:00,,0822.3,5.00,0.00,29.4,28.0,00.0,38.2,31.3,25.6,-000.3,0014.03,0005.82,0004.95
2022-06-03 21:20:00,,0822.3,5.00,0.00,29.4,28.1,00.0,38.2,31.3,25.1,-000.5,0014.12,0005.88,0004.97
2022-06-03 21:21:00,,0822.3,5.01,0.00,29.4,28.2,00.0,38.2,31.3,25.4,-000.8,0013.59,0005.93,0005.00
2022-06-03 21:22:00,,0822.3,4.98,0.00,29.4,28.3,00.0,38.2,31.4,26.3,-001.5,0013.17,0005.95,0005.02
2022-06-03 21:23:00,,0822.3,5.00,0.00,29.5,28.4,00.0,38.3,31.4,25.8,-001.8,0012.95,0006.01,0005.06
2022-06-03 21:24:00,,0822.3,5.01,0.00,29.5,28.5,00.0,38.3,31.5,26.5,-001.9,0013.92,0006.15,0005.16
2022-06-03 21:25:00,,0822.3,4.99,0.00,29.5,28.6,00.0,38.3,31.5,26.3,-001.8,0014.09,0006.24,0005.26
2022-06-03 21:26:00,,0822.3,5.00,0.00,29.5,28.7,00.0,38.3,31.5,25.8,-001.8,0013.85,0006.41,0005.41
2022-06-03 21:27:00,,0822.3,5.01,0.00,29.6,28.7,00.0,38.3,31.6,25.3,-001.7,0014.39,0006.54,0005.52
2022-06-03 21:28:00,,0822.4,5.01,0.00,29.6,28.2,00.0,38.3,31.5,25.1,-001.5,0014.32,0006.57,0005.58
2022-06-03 21:29:00,,0822.4,5.00,0.00,29.5,27.3,00.0,38.2,31.2,24.8,-000.9,0013.93,0006.54,0005.60
2022-06-03 21:30:00,,0822.3,5.01,0.00,29.4,26.9,00.0,38.2,31.0,25.9,-000.8,0013.46,0006.52,0005.58
2022-06-03 21:31:00,,0822.3,5.01,0.00,29.3,26.9,00.0,38.2,31.0,26.4,-000.8,0013.37,0006.52,0005.61
2022-06-03 21:32:00,,0822.3,4.99,0.00,29.3,27.0,00.0,38.2,31.0,27.4,-000.7,0012.88,0006.56,0005.67
2022-06-03 21:33:00,,0822.4,4.99,0.00,29.2,27.2,00.0,38.2,31.0,27.1,-000.2,0013.03,0006.58,0005.70
2022-06-03 21:34:00,,0822.5,5.00,0.00,29.2,27.4,00.0,38.1,31.0,26.8,-000.1,0013.93,0006.67,0005.77
2022-06-03 21:35:00,,0822.5,4.99,0.00,29.2,27.5,00.0,38.1,31.1,27.0,-000.0,0013.51,0006.66,0005.81
2022-06-03 21:36:00,,0822.5,5.01,0.00,29.2,27.7,00.0,38.1,31.1,25.9,-000.1,0013.18,0006.60,0005.76
2022-06-03 21:37:00,,0822.6,5.00,0.00,29.2,27.9,00.0,38.1,31.2,25.2,0000.2,0013.13,0006.50,0005.68
2022-06-03 21:38:00,,0822.5,5.00,0.00,29.3,28.0,00.0,38.1,31.2,25.4,-000.2,0013.31,0006.43,0005.65
2022-06-03 21:39:00,,0822.6,5.00,0.00,29.3,28.1,00.0,38.1,31.2,26.7,-000.4,0013.61,0006.49,0005.65
2022-06-03 21:40:00,,0822.6,5.00,0.00,29.3,28.2,00.0,38.2,31.3,26.7,-000.5,0013.88,0006.55,0005.69
2022-06-03 21:41:00,,0822.7,5.00,0.00,29.4,28.4,00.0,38.2,31.3,26.9,-000.7,0014.06,0006.58,0005.74
2022-06-03 21:42:00,,0822.7,5.01,0.00,29.4,28.5,00.0,38.2,31.4,27.1,-000.7,0014.60,0006.64,0005.78
2022-06-03 21:43:00,,0822.7,4.99,0.00,29.4,28.6,00.0,38.2,31.4,27.5,-001.0,0015.74,0006.74,0005.85
2022-06-03 21:44:00,,0822.8,4.99,0.00,29.5,28.6,00.0,38.2,31.5,27.3,-001.6,0016.41,0006.86,0005.95
2022-06-03 21:45:00,,0822.9,5.00,0.00,29.5,28.7,00.0,38.3,31.5,27.2,-001.8,0015.51,0006.88,0006.00
2022-06-03 21:46:00,,0822.9,5.00,0.00,29.5,28.8,00.0,38.3,31.6,27.3,-001.8,0015.45,0006.93,0006.06
2022-06-03 21:47:00,,0822.9,5.01,0.00,29.6,28.8,00.0,38.3,31.6,27.1,-001.9,0015.32,0007.02,0006.13
2022-06-03 21:48:00,,0822.9,4.99,0.00,29.6,28.1,00.0,38.2,31.4,27.3,-002.1,0015.28,0007.07,0006.20
2022-06-03 21:49:00,,0822.8,5.01,0.00,29.5,27.2,00.0,38.2,31.1,26.2,-001.5,0014.77,0007.07,0006.19
2022-06-03 21:50:00,,0822.9,5.01,0.00,29.4,27.0,00.0,38.2,31.0,26.0,-001.7,0016.26,0006.98,0006.13
2022-06-03 21:51:00,,0822.9,5.01,0.00,29.3,27.0,00.0,38.1,31.0,25.5,-002.1,0016.47,0006.95,0006.08
2022-06-03 21:52:00,,0822.9,5.00,0.00,29.3,27.1,00.0,38.1,31.0,26.3,-002.0,0016.44,0006.97,0006.06
2022-06-03 21:53:00,,0823.0,4.99,0.00,29.2,27.3,00.0,38.1,31.0,26.1,-001.5,0016.36,0006.98,0006.07
2022-06-03 21:54:00,,0823.0,5.00,0.00,29.2,27.5,00.0,38.1,31.1,26.7,-001.2,0015.60,0006.92,0006.07
2022-06-03 21:55:00,,0822.9,5.01,0.00,29.2,27.7,00.0,38.1,31.1,27.3,-001.1,0014.98,0006.86,0006.07
2022-06-03 21:56:00,,0822.9,5.00,0.00,29.3,27.8,00.0,38.1,31.2,26.9,-000.8,0015.30,0006.90,0006.09
2022-06-03 21:57:00,,0822.9,4.99,0.00,29.3,28.0,00.0,38.1,31.2,27.1,-000.3,0015.58,0006.94,0006.13
2022-06-03 21:58:00,,0823.0,4.99,0.00,29.3,28.1,00.0,38.2,31.3,27.0,-000.1,0015.84,0006.96,0006.19
2022-06-03 21:59:00,,0823.0,5.00,0.00,29.3,28.3,00.0,38.2,31.3,27.0,-000.3,0016.41,0007.10,0006.33
